Jackson, Tennessee, United States (38301)
Lat: 35.61N, Lon: 88.81W
Wx Zone: TNZ052
Local Info
Past Weather Observations for Wednesday, May 27, 2015

NOTE: This archive is for the closest National Weather Service station to Jackson. Information may differ from the station used for current weather conditions.

Click here for Long-term Archive

Time Weather Temperature Dewpoint Humidity Pressure Winds Precip Visibility
23:53
Clear
64°F / 18°C 63°F / 17°C 94% 30.15 in
(1021 mb)
Calm - 10SM
22:53
Clear
66°F / 19°C 64°F / 18°C 94% 30.15 in
(1021 mb)
Calm - 10SM
21:53
Clear
70°F / 21°C 64°F / 18°C 83% 30.15 in
(1021 mb)
Calm - 10SM
20:53
Clear
70°F / 21°C 64°F / 18°C 83% 30.15 in
(1021 mb)
SSE 4.6 mph
(SSE 7 kph)
- 10SM
19:53
Clear
72°F / 22°C 66°F / 19°C 83% 30.12 in
(1020 mb)
S 4.6 mph
(S 7 kph)
- 10SM
18:53
Partly Cloudy
72°F / 22°C 66°F / 19°C 83% 30.12 in
(1020 mb)
SE 3.5 mph
(SE 6 kph)
- 10SM
17:53
Clear
73°F / 23°C 66°F / 19°C 78% 30.09 in
(1019 mb)
Calm - 10SM
16:53
Clear
75°F / 24°C 66°F / 19°C 74% 30.12 in
(1020 mb)
SSE 4.6 mph
(SSE 7 kph)
- 10SM
15:53
Clear
75°F / 24°C 66°F / 19°C 74% 30.09 in
(1019 mb)
Calm - 10SM
14:53
Clear
77°F / 25°C 66°F / 19°C 69% 30.12 in
(1020 mb)
S 6.9 mph
(S 11 kph)
- 10SM
13:53
Clear
77°F / 25°C 66°F / 19°C 69% 30.15 in
(1021 mb)
S 8.1 mph
(S 13 kph)
- 10SM
12:53
Partly Cloudy
77°F / 25°C 66°F / 19°C 69% 30.18 in
(1022 mb)
W 6.9 mph
(W 11 kph)
- 10SM
11:53
Partly Cloudy
79°F / 26°C 66°F / 19°C 65% 30.18 in
(1022 mb)
SSW 8.1 mph
(SSW 13 kph)
- 10SM
10:53
Clear
75°F / 24°C 68°F / 20°C 78% 30.15 in
(1021 mb)
SW 5.8 mph
(SW 9 kph)
0.04 in
(1.02 mm)
10SM
10:35
Mostly Cloudy
73°F / 23°C 68°F / 20°C 83% 30.15 in
(1021 mb)
SW 6.9 mph
(SW 11 kph)
0.03 in
(0.76 mm)
10SM
10:15
Overcast
Thunder Storms
72°F / 22°C 66°F / 19°C 83% 30.15 in
(1021 mb)
Calm 0.03 in
(0.76 mm)
10SM
09:57
Overcast
Thunder Storms
72°F / 22°C 66°F / 19°C 83% 30.18 in
(1022 mb)
NW 3.5 mph
(NW 6 kph)
0.02 in
(0.51 mm)
3SM
09:53
Overcast
Thunder Storms
72°F / 22°C 66°F / 19°C 83% 30.18 in
(1022 mb)
WNW 5.8 mph
(WNW 9 kph)
0.63 in
(16.00 mm)
5SM
09:48
Overcast
Thunder Storms
72°F / 22°C 66°F / 19°C 83% 30.18 in
(1022 mb)
WNW 9.2 mph
(WNW 15 kph)
0.62 in
(15.75 mm)
9SM
09:42
Overcast
Thunder Storms
72°F / 22°C 64°F / 18°C 78% 30.18 in
(1022 mb)
SSW 13.8 mph
(SSW 22 kph)
0.62 in
(15.75 mm)
2SM
09:34
Overcast
Thunder Storms
72°F / 22°C 66°F / 19°C 83% 30.15 in
(1021 mb)
SSE 12.7 mph
(SSE 20 kph)
0.48 in
(12.19 mm)
1/2SM
09:27
Overcast
Thunder Storms
75°F / 24°C 68°F / 20°C 78% 30.15 in
(1021 mb)
S 10.4 mph
(S 17 kph)
0.11 in
(2.79 mm)
1SM
08:53
Overcast
Thunder Storms
75°F / 24°C 66°F / 19°C 74% 30.15 in
(1021 mb)
SSE 8.1 mph
(SSE 13 kph)
- 10SM
08:39
Mostly Cloudy
Thunder Storms
77°F / 25°C 68°F / 20°C 74% 30.15 in
(1021 mb)
SSE 8.1 mph
(SSE 13 kph)
- 10SM
07:53
Overcast
75°F / 24°C 68°F / 20°C 78% 30.15 in
(1021 mb)
SW 6.9 mph
(SW 11 kph)
- 10SM
06:53
Clear
72°F / 22°C 66°F / 19°C 83% 30.12 in
(1020 mb)
S 5.8 mph
(S 9 kph)
- 10SM
05:53
Clear
66°F / 19°C 64°F / 18°C 94% 30.12 in
(1020 mb)
SE 4.6 mph
(SE 7 kph)
- 10SM
04:53
Clear
64°F / 18°C 63°F / 17°C 94% 30.12 in
(1020 mb)
Calm - 10SM
03:53
Clear
64°F / 18°C 63°F / 17°C 94% 30.09 in
(1019 mb)
Calm - 10SM
02:53
Clear
70°F / 21°C 64°F / 18°C 83% 30.09 in
(1019 mb)
S 5.8 mph
(S 9 kph)
- 10SM
01:53
Clear
68°F / 20°C 64°F / 18°C 88% 30.09 in
(1019 mb)
S 5.8 mph
(S 9 kph)
- 10SM
00:53
Clear
66°F / 19°C 64°F / 18°C 94% 30.06 in
(1018 mb)
S 5.8 mph
(S 9 kph)
- 10SM
Time Weather Temperature Dewpoint Humidity Pressure Winds Precip Visibility


Weather for websites

WeatherForYou.com, LLC is not responsible for any damages or problems caused by this service. Current weather conditions are obtained from the closest station including government and personal stations which may have varying degrees of accuracy. Weather forecasts are derived from the NOAA NDFD. Like all things, this site belongs to Jesus Christ... He just trusts us to maintain it. If you have any questions or comments email webmaster@weatherforyou.com

Copyright © 2015, WeatherForYou.com LLC. All rights reserved.